Lid_Strength_Index
3 4 4 4 4 4 4 4 4 4 4 4 4 4 4 4 4 4 4 4 4 4 3 3 2 2 3 5 6 -1 -2 -2 4 4 2 3 6 5 7 6 6 8 7 6 5 5 6
4 4 4 4 4 4 4 4 4 4 4 4 4 4 4 4 4 4 4 4 4 4 3 3 3 2 4 7 1 -1 1 3 4 3 2 3 6 4 5 6 7 7 7 6 5 6 6
4 4 4 4 4 4 4 4 4 4 4 4 4 4 4 4 3 3 3 3 4 3 3 3 2 2 3 5 -0 -0 1 3 2 1 3 2 4 5 5 6 4 7 9 6 6 6 7
4 4 4 4 4 4 4 4 3 3 3 3 3 3 3 3 3 3 3 3 3 2 2 2 2 2 4 1 -1 1 1 2 2 0 1 2 2 5 6 4 5 7 7 10 7 6 6
4 4 4 4 4 4 4 3 3 3 3 3 3 3 3 3 3 3 3 3 2 0 0 1 2 2 5 -0 2 0 0 2 1 1 1 1 3 5 5 7 8 8 12 10 9 6 7
4 4 5 4 4 4 4 3 3 3 3 3 3 2 2 2 3 3 3 3 2 2 1 1 1 4 3 4 2 1 0 1 2 2 3 3 4 6 6 8 12 11 11 10 11 10 9
4 4 4 4 4 4 3 3 3 3 3 3 2 2 2 2 3 3 3 1 3 4 2 4 4 4 3 1 1 2 1 2 2 3 6 4 7 8 7 6 7 7 8 10 9 8 9
4 4 5 5 4 4 3 3 3 3 3 2 2 2 2 2 3 3 3 3 3 2 5 3 3 3 2 1 4 3 1 4 4 6 5 6 8 6 5 5 7 8 8 11 10 8 11
4 4 4 5 4 4 3 3 3 3 2 2 2 2 2 3 3 3 1 2 1 1 5 4 3 4 3 2 4 4 3 3 5 6 6 7 6 5 6 6 8 7 8 10 11 9 9
4 4 5 5 4 4 3 3 3 3 2 2 2 2 2 3 4 1 2 0 0 0 7 6 5 4 3 3 5 2 2 3 5 7 6 6 5 6 6 7 6 8 6 8 10 10 13
4 4 4 5 5 4 3 3 3 2 1 2 1 2 2 3 1 2 1 -1 -0 1 14 6 5 1 3 4 4 4 2 3 6 6 6 7 6 7 7 7 6 7 6 8 8 9 9
4 4 5 4 4 4 3 3 3 2 1 1 1 2 2 2 2 0 -1 -0 1 8 13 8 5 5 5 5 5 4 4 3 3 5 5 6 4 5 6 5 5 5 6 7 8 8 12
4 4 5 5 4 4 3 3 3 2 1 1 2 3 3 -0 2 -1 -0 2 8 11 6 8 7 6 6 7 6 5 6 7 8 9 9 7 6 5 5 7 5 6 8 13 13 13 13
4 4 5 5 5 4 3 3 2 1 1 2 3 3 2 1 -1 -1 1 6 14 11 10 6 6 6 8 6 7 6 7 8 6 7 8 10 11 7 5 6 7 7 8 12 15 14 12
4 4 5 5 5 5 3 3 2 1 1 2 3 -0 1 -0 -1 -0 4 11 13 11 8 7 7 8 9 8 7 7 7 7 6 6 11 9 9 6 5 5 6 8 10 7 10 9 11
4 4 4 5 5 4 3 3 2 1 2 2 1 1 2 -1 -1 1 7 12 8 6 6 6 9 8 10 9 8 8 8 6 7 6 6 7 11 7 6 6 6 7 6 10 10 14 14
4 4 4 5 5 4 2 3 1 1 2 2 1 4 1 -1 -0 5 12 10 6 5 5 7 8 9 8 9 8 11 9 7 6 6 6 7 8 8 6 8 9 8 9 8 8 9 13
4 4 4 5 5 4 2 3 1 2 3 4 2 6 1 -0 5 6 10 6 7 5 6 7 6 7 8 8 9 9 10 8 6 6 8 6 8 10 9 6 6 7 7 8 11 12 12
4 4 4 5 5 3 2 3 1 2 2 1 4 3 -0 1 9 9 5 6 5 6 6 7 7 6 6 8 9 9 7 6 6 6 8 7 8 11 10 8 6 8 7 7 7 8 12
4 4 3 5 5 3 2 3 1 2 2 1 4 6 3 2 3 5 6 6 7 5 5 5 6 6 7 8 7 8 8 6 6 6 5 5 8 10 13 10 8 9 8 7 8 10 10
4 3 3 4 4 3 2 3 1 2 2 1 3 5 4 6 5 5 5 6 7 7 5 5 6 6 7 9 8 8 7 6 6 6 6 7 10 8 8 8 8 8 8 8 8 8 13
3 3 3 4 4 2 2 2 1 2 3 2 4 4 3 4 5 5 6 6 7 6 6 7 7 6 6 10 8 9 7 6 7 6 6 6 9 8 9 9 8 9 8 8 8 8 9
3 3 3 5 4 2 2 2 0 1 3 2 1 1 3 5 5 6 6 6 6 5 5 5 5 6 7 6 5 5 4 5 5 6 6 7 8 9 11 8 9 11 9 9 8 7 9
3 3 3 5 4 2 2 2 -0 1 2 1 1 2 5 6 5 6 5 5 6 5 6 5 4 6 5 3 3 4 4 5 5 5 5 7 8 9 11 9 14 9 6 7 8 7 7
3 2 3 5 4 2 3 1 -0 0 1 0 0 2 4 6 5 5 5 5 5 5 5 5 4 3 3 4 6 8 8 7 7 6 6 5 7 9 12 12 9 9 8 8 8 8 6
3 3 3 4 4 2 3 1 -1 -0 1 1 0 -0 3 5 5 4 5 5 6 6 6 5 3 2 3 5 7 11 11 9 10 8 5 6 6 9 10 12 14 9 6 6 6 9 5
3 3 2 3 3 3 3 2 -1 -1 0 1 1 -1 2 5 3 3 5 5 4 4 6 5 5 5 3 6 9 10 13 9 12 11 10 9 8 10 10 11 9 6 6 5 10 9 5
3 3 2 3 4 3 3 3 -0 -0 -0 1 1 -1 2 4 3 2 3 4 4 4 6 5 5 5 6 8 8 10 10 10 10 8 9 10 10 11 9 11 13 5 6 8 7 5 4
3 3 2 3 4 4 4 3 0 -0 -0 1 2 -1 -1 3 3 1 1 1 2 2 4 4 5 5 5 7 7 7 9 8 10 12 6 11 8 10 10 10 5 4 5 4 4 5 4